Weather in Klyuchishchi

Russia / Nizhny Novgorod Oblast'     55°20′08″N   45°33′00″E
temp.,
°C
wind,
m/s
gust,
m/s
humid.,
%
clouds,
%
prec.,
mm/h
press.,
hPa
HPBL,
m
7 may, fri
fri700:00+11s51477100 0.0 1012355
03:00+10s51279100 0.0 1011290
06:00+11s61375100 0.0 1011364
09:00+13s71368100 0.0 1010506
12:00+16s81457100 0.1 10101924
15:00+10wnw8884100 0.3 1012581
18:00+7nw3788100 0.7 1015411
21:00+6w1190100 0.7 101611
8 may, sat
sat800:00+5sw1190100 0.0 101711
03:00+5s118912 0.0 101810
06:00+6ese12824 0.0 101874
09:00+11e35613 0.0 1017766
12:00+14se4557100 0.0 10151338
15:00+14se586996 0.0 10131189
18:00+13s4970100 0.0 1011383
21:00+11sse41084100 0.0 1011199
9 may, sun
sun900:00+11sse41278100 0.0 1009287
03:00+11s51373100 0.1 1009377
06:00+11s61483100 0.5 1009482
09:00+11s5985100 0.5 1010536
12:00+12sw4677100 0.0 1012715
15:00+8w4688100 1.8 1015380
18:00+7wnw2595100 3.1 1016256
21:00+7nw3795100 4.3 1018421
10 may, mon
mon1000:00+7nnw4795100 0.0 1019399
03:00+6nnw5994100 0.0 1021405
06:00+6nnw5992100 0.0 1024489
09:00+9n6781100 0.0 1026718
12:00+9n578187 0.0 1027740
15:00+11nne567071 0.0 1027968
18:00+11ene47745 0.0 1028747
21:00+7ne38874 0.0 1029152
11 may, tue
tue1100:00+6ne37894 0.0 1029136
03:00+5ne389055 0.0 1030150
06:00+6ne398420 0.0 1031262
09:00+12ene586152 0.0 1031803
12:00+15ne67505 0.0 10301154
15:00+16ne67491 0.0 10291340
18:00+15ene46625 0.0 1029270
21:00+11ene23694 0.0 103025